Weather History for Jordan, MT

Change the Weather History Date:

Friday, November 9, 2012

  Actual Average Record
Temperature  
Mean Temperature 27 °F 33 °F  
Max Temperature 32 °F 47 °F 71 °F (2001)
Min Temperature 21 °F 20 °F -15 °F (1945)
Degree Days  
Heating Degree Days 38 32  
Month to date heating degree days 215 268  
Since 1 July heating degree days 1032 1241  
Cooling Degree Days 0 0  
Month to date cooling degree days 0 0  
Year to date cooling degree days 728 421  
Moisture  
Dew Point 26 °F    
Average Humidity 93    
Maximum Humidity 100    
Minimum Humidity 85    
Precipitation  
Precipitation 0.14 in 0.02 in 0.49 in (2014)
Month to date precipitation 0.70 0.17  
Year to date precipitation 7.65 12.19  
Snow  
Snow 0.00 in - - ()
Month to date snowfall 0.0  
Since 1 July snowfall 0.0  
Since 1 September snowfall 0.0  
Snow Depth 0.00 in    
Sea Level Pressure  
Sea Level Pressure 29.91 in    
Wind  
Wind Speed 16 mph (ENE)    
Max Wind Speed 26 mph    
Max Gust Speed 32 mph    
T = Trace of Precipitation, MM = Missing Value Source: NWS Daily Summary

Daily Weather History Graph

Daily Weather History Graph

Search for Another Location

Airport:

Trip Planner

Search our weather history database for the weather conditions in past years. The results will help you decide how hot, cold, wet, or windy it might be!

Date:

Astronomy

Nov. 09, 2012 Rise Set
Actual Time 7:04 AM MST 4:38 PM MST
Civil Twilight 6:31 AM MST 5:11 PM MST
Nautical Twilight 5:54 AM MST 5:48 PM MST
Astronomical Twilight 5:18 AM MST 6:24 PM MST
Moon 1:47 AM MST (11/9) 2:09 PM MST (11/9)
Length of Visible Light 10h 40m
Length of Day
9h 34m
Waning Crescent, 22% of the Moon is Illuminated
Nov 9
Waning Crescent
Nov 13
New
Nov 20
First Quarter
Nov 28
Full
Dec 6
Last Quarter

Hourly Weather History & Observations

Time (MST) Temp. Windchill Dew Point Humidity Pressure Visibility Wind Dir Wind Speed Gust Speed Precip Events Conditions
12:48 AM 30.9 °F 17.8 °F 28.9 °F 92% 29.95 in - East 23.0 mph 28.8 mph N/A   Unknown
1:48 AM 32.0 °F 19.2 °F 28.9 °F 88% 29.94 in - East 23.0 mph 31.1 mph N/A   Unknown
2:48 AM 30.9 °F 17.5 °F 28.9 °F 92% 29.93 in - East 24.2 mph 31.1 mph N/A   Unknown
3:48 AM 30.9 °F 18.1 °F 28.9 °F 92% 29.91 in - East 21.9 mph 29.9 mph N/A   Unknown
4:48 AM 30.9 °F 19.1 °F 30.0 °F 96% 29.91 in - East 18.4 mph 23.0 mph N/A   Unknown
5:48 AM 30.9 °F 18.7 °F 30.0 °F 96% 29.89 in - East 19.6 mph 24.2 mph 0.01 in   Unknown
6:48 AM 30.9 °F 18.7 °F 28.9 °F 92% 29.87 in - East 19.6 mph 26.5 mph 0.02 in   Unknown
7:48 AM 30.0 °F 19.5 °F 28.9 °F 96% 29.88 in - East 13.8 mph 24.2 mph 0.03 in   Unknown
8:48 AM 30.0 °F 18.3 °F 28.0 °F 92% 29.91 in - East 17.3 mph 24.2 mph 0.03 in   Unknown
9:48 AM 30.0 °F 18.3 °F 28.0 °F 92% 29.92 in - East 17.3 mph 24.2 mph 0.01 in   Unknown
10:48 AM 28.9 °F 15.8 °F 27.0 °F 92% 29.90 in - East 20.7 mph 24.2 mph 0.01 in   Unknown
11:48 AM 28.0 °F 15.3 °F 26.1 °F 92% 29.90 in - East 18.4 mph 23.0 mph N/A   Unknown
12:48 PM 28.0 °F 16.5 °F 26.1 °F 92% 29.88 in - East 15.0 mph 20.7 mph N/A   Unknown
1:48 PM 28.0 °F 18.1 °F 26.1 °F 92% 29.89 in - East 11.5 mph - N/A   Unknown
2:48 PM 28.0 °F 16.1 °F 26.1 °F 92% 29.88 in - ENE 16.1 mph - N/A   Unknown
3:48 PM 28.0 °F 17.0 °F 25.0 °F 88% 29.88 in - ENE 13.8 mph - N/A   Unknown
4:48 PM 28.0 °F 19.3 °F 26.1 °F 92% 29.91 in - NE 9.2 mph - N/A   Unknown
5:48 PM 27.0 °F 16.7 °F 25.0 °F 92% 29.92 in - NE 11.5 mph - 0.02 in   Unknown
6:48 PM 27.0 °F 17.3 °F 24.1 °F 89% 29.94 in - NE 10.4 mph - N/A   Unknown
7:48 PM 26.1 °F 15.6 °F 24.1 °F 92% 29.93 in - NE 11.5 mph - N/A   Unknown
8:48 PM 26.1 °F 15.6 °F 24.1 °F 92% 29.94 in - NNE 11.5 mph - N/A   Unknown
9:48 PM 24.1 °F 11.5 °F 21.9 °F 91% 29.94 in - NE 15.0 mph - N/A   Unknown
10:48 PM 21.9 °F 10.4 °F 19.0 °F 89% 29.95 in - NE 11.5 mph - N/A   Unknown
11:48 PM 21.0 °F 8.6 °F 17.1 °F 85% 29.97 in - NNE 12.7 mph - N/A   Unknown